Terminal Aerodrome Forecast
Issued by NWS

Home | Current Version | Previous Version | Text Only | Print | Product List | Glossary On
Versions: 1 2 3 4 5 6 7 8 9 10 11 12 13 14 15
000
FTUS44 KMAF 241700
TAFPEQ
TAF
KPEQ 241720Z 2418/2518 13006KT P6SM SKC
     FM242000 13010G20KT P6SM SCT090 SCT250
     FM250200 17005KT P6SM SKC
     FM251200 15004KT P6SM SKC=

USA.gov is the U.S. government's official web portal to all federal, state and local government web resources and services.